Orbital Elements at Epoch 2459000.5 (2020-May-31.0) TDB
Reference: JPL 27 (heliocentric ecliptic J2000)
Element | Value | Uncertainty (1-sigma) | Units |
e | .106336496241591 | 4.1369e-08 | |
a | 2.766583200957828 | 1.7952e-08 | au |
q | 2.472394436807126 | 1.107e-07 | au |
i | 12.92459776944563 | 7.2614e-06 | deg |
node | 248.0509614524305 | 2.2996e-05 | deg |
peri | 67.54612644406232 | 4.402e-05 | deg |
M | 119.7825096787834 | 3.8577e-05 | deg |
tp | 2458441.251358827111 (2018-Nov-18.75135883) | 0.00017885 | TDB |
period | 1680.792223857542 4.60 | 1.636e-05 4.479e-08 | d yr |
n | .2141847129526655 | 2.0848e-09 | deg/d |
Q | 3.060771965108528 | 1.9861e-08 | au |
|
| | Orbit Determination Parameters
Additional Information
|